Regional Weather Roundup
Issued by NWS

Home | Current Version | Previous Version | Graphics & Text | Print | Product List | Glossary On
Versions: 1 2 3 4 5 6 7 8 9 10 11 12 13 14 15 16 17 18 19 20 21 22 23 24 25 26 27 28 29 30 31 32 33 34 35 36 37 38 39 40 41 42 43 44 45 46 47 48 49 50
000
ASUS43 KLOT 230404
RWRIL

ILLINOIS REGIONAL WEATHER ROUNDUP
NATIONAL WEATHER SERVICE CHICAGO/ROMEOVILLE IL
1100 PM CDT FRI SEP 22 2017

NOTE: "FAIR" INDICATES FEW OR NO CLOUDS BELOW 12,000 FEET WITH NO
SIGNIFICANT WEATHER AND/OR OBSTRUCTIONS TO VISIBILITY.

* THESE STATIONS ARE NOT UNDER NWS QUALITY CONTROL. THEY ALSO MAY NOT
  REPORT WEATHER SUCH AS PRECIPITATION OR FOG.

ILZ001-002-007-009-015-016-024-230500-
NORTHWEST ILLINOIS

CITY           SKY/WX    TMP DP  RH WIND       PRES   REMARKS
MOLINE         CLEAR     73  65  75 SE5       29.99S
STERLING*      CLEAR     71  66  84 SE3       30.02S
SAVANNA*       CLEAR     70  67  91 CALM      30.01S
$$

ILZ003-004-008-010-011-017-018-230500-
NORTH CENTRAL ILLINOIS

CITY           SKY/WX    TMP DP  RH WIND       PRES   REMARKS
ROCKFORD       CLEAR     73  64  73 S5        30.04R
FREEPORT*      CLEAR     72  64  75 S7        30.03F
ROCHELLE*      CLEAR     70  64  81 S5        30.04S
DE KALB*       CLEAR     72  65  80 S6        30.05S
PERU*          CLEAR     77  64  63 SE6       30.03S
$$

ILZ005-006-012>014-019>023-230500-
NORTHEAST ILLINOIS

CITY           SKY/WX    TMP DP  RH WIND       PRES   REMARKS
CHICAGO-OHARE  CLEAR     78  66  66 SE9       30.03S HX  80
CHICAGO-MIDWAY CLEAR     83  68  60 SE6       30.04R HX  86
AURORA         CLEAR     73  66  78 CALM      30.04S
LANSING*       CLEAR     74  70  87 E3        30.04S
JOLIET*        CLEAR     73  69  85 CALM      30.04R
WAUKEGAN       CLEAR     80  67  64 S8        30.04R HX  82
DUPAGE AIRPORT CLEAR     74  67  78 S5        30.04R
KANKAKEE*      CLEAR     73  66  78 CALM      30.06R
WHEELING       CLEAR     76  69  79 CALM      30.04S
MORRIS*        CLEAR     75  67  74 S3        30.03S
ROMEOVILLE*    CLEAR     74  66  75 S6        30.04S
NORTHERLY ISL    N/A     74  67  78 SE2         N/A
$$

LMZ740>746-230500-
SOUTHERN LAKE MICHIGAN

STATION/POSITION SKY/WX   TEMP    WIND        PRES    VSBY  WAVE
                          AIR SEA DIR/SP/G                  HT/PER
                          (F)     (DEG/KT/KT) (MB)    (MI)  (FT/S)
SOUTHERN BUOY              74 70  120/ 10/ 10 1016.9          0
WILMETTE HARBOR            74 72  160/  8/  8   N/A           1/ 2
HARRISON CRIB              78     130/ 10/ 12   N/A
BURNHAM HARBOR             74                   N/A
CALUMET HARBOR             78        CALM     1016.7R
BURNS HARBOR               82     150/  7/ 10 1017.9R
MICHIGAN CITY              79     130/  5/  6   N/A
MICHIGAN CITY 6N           74 72   CALM  /  2   N/A           0
ST. JOSEPH                 76 73  110/  2/  2 1017.3R         0
$$

ILZ025>027-034>036-040-047-049-050-058-095>099-230500-
WEST-CENTRAL ILLINOIS

CITY           SKY/WX    TMP DP  RH WIND       PRES   REMARKS
QUINCY         CLEAR     74  62  66 SE7       30.00S
GALESBURG*     CLEAR     72  65  78 CALM      30.03R
MACOMB*        CLEAR     67  64  89 CALM      30.03S
JACKSONVILLE*  CLEAR     75  63  65 SE5       30.01S
PITTSFIELD*    CLEAR     73  66  79 CALM      30.03R
$$

ILZ028>032-037-038-041>044-048-051>054-059>061-230500-
CENTRAL ILLINOIS

CITY           SKY/WX    TMP DP  RH WIND       PRES   REMARKS
PONTIAC        CLOUDY    76  71  85 SE3       30.04S
BLOOMINGTON    MOCLDY    75  65  70 SE6       30.06R
DECATUR        CLEAR     71  65  81 E5        30.04S
PEORIA         CLEAR     79  65  62 CALM      30.02S HX  81
LACON*         CLEAR     75  66  72 CALM      30.02S
LINCOLN*       PTCLDY    74  67  78 CALM      30.02F
SPRINGFIELD    CLEAR     76  66  71 SE3       30.02S
TAYLORVILLE    CLEAR     72  66  83 CALM      30.03S
$$

ILZ033-039-045-046-055>057-062-063-230500-
EAST-CENTRAL ILLINOIS

CITY           SKY/WX    TMP DP  RH WIND       PRES   REMARKS
CHAMPAIGN      CLEAR     73  65  75 E6        30.05S
RANTOUL*       PTCLDY    77  69  76 CALM      30.06R
MATTOON        CLEAR     75  67  76 SE3       30.04R
PARIS*         PTCLDY    71  71  98 E5        30.05F
$$

ILZ079-100>102-230500-
SOUTHWEST ILLINOIS

CITY           SKY/WX    TMP DP  RH WIND       PRES   REMARKS
ALTON          CLEAR     69  66  90 CALM      30.01S
BELLEVILLE     CLEAR     71  67  85 CALM      30.00S
CAHOKIA*       CLEAR     73  65  75 S3        30.00S
SPARTA*        CLEAR     75  66  73 SE5       30.03R
$$

ILZ064>066-069>071-074>076-080>082-084>086-088>090-092>094-230500-
SOUTH-CENTRAL ILLINOIS

CITY           SKY/WX    TMP DP  RH WIND       PRES   REMARKS
CARBONDALE     CLEAR     69  69 100 CALM      30.02R
CAIRO*         CLEAR     68  68  99 CALM      30.01S FOG
EFFINGHAM*     CLEAR     72  68  86 E3        30.05R
MARION         CLEAR     73  68  83 SE3       30.03S
MT. VERNON       N/A     69  68  96 CALM      30.03S
CENTRALIA*     CLEAR     75  68  77 SE3       30.02S
SALEM*         CLEAR     78  66  66 CALM      30.03S HX  80
METROPOLIS*    CLEAR     70  68  93 CALM      30.02S
$$

ILZ067-068-072-073-078-083-087-091-230500-
SOUTHEAST ILLINOIS

CITY           SKY/WX    TMP DP  RH WIND       PRES   REMARKS
LAWRENCEVILLE  CLEAR     74  71  91 MISG      30.04R
FLORA*         CLEAR     74  68  81 CALM      30.03F
FAIRFIELD*     CLEAR     70  65  84 CALM      30.03S
HARRISBURG*    CLEAR     70  67  90 CALM      30.03S
ROBINSON*      CLEAR     70  68  92 CALM      30.05R
CARMI*         CLEAR     69  68  95 CALM      30.02F
$$

ABBREVIATIONS USED IN REMARKS
   TC - TEMPERATURE IN CELSIUS
  WCI - WIND CHILL INDEX
   HX - HEAT INDEX
  VSB - VISIBILITY
$$





USA.gov is the U.S. government's official web portal to all federal, state and local government web resources and services.